x

Ilm3 - 27 Miles Se Of Wrightsville Beach, Nc (41037) Weather Station

4:08 - Sun 26th Feb 2017 All times are EST. -5 hours from GMT.

  • Wind
    22mph, 29mph gusts
  • Sea Temp 61°f
  • Ar Temp 57°f
  • Sea Pressure 1013.8mb
  • Ilm3 - 27 Miles Se Of Wrightsville Beach, Nc
  • Ilm3 - 27 Miles Se Of Wrightsville Beach, Nc

More Historic Weather Station data

Upgrade to MSW Pro to gain access to the past 30 days of data for over 8000 Wavebouys and Weather Stations around the globe.

Join Pro

Comparision Forecast

View Surf forecast
   
Dom 02/26 4:08 22 29 mph 1013.8mb 61f 57f
3:08 20 29 mph 1012.5mb 61f 60f
2:08 18 25 mph 1011mb 61f 62f
1:08 16 25 mph 1010.4mb 61f 63f
12:08 18 25 mph 1009.2mb 62f 64f
Sáb 02/25 11:08 18 25 mph 1008.8mb 62f 63f
10:08 20 27 mph 1007.9mb 63f 65f
9:08 22 29 mph 1006.1mb 64f 65f
8:08 22 29 mph 1005.2mb 64f 67f
7:08 22 31 mph 1005.5mb 64f 67f
6:08 22 31 mph 1004.3mb 64f 68f
5:08 20 29 mph 1004.1mb 65f 69f
4:08 18 27 mph 1004.6mb 65f 69f
3:08 18 22 mph 1005.1mb 65f 69f
2:08 13 20 mph 1005.5mb 65f 68f
1:08 13 18 mph 1006.4mb 65f 67f
12:08 11 16 mph 1007.7mb 65f 66f
11:08 9 13 mph 1008.5mb 65f 66f
10:08 7 9 mph 1009.5mb 65f 65f
9:08 4 9 mph 1009.3mb 65f 64f
8:08 4 9 mph 1008.9mb 65f 64f
7:08 4 9 mph 1007.9mb 65f 64f
6:08 2 7 mph 1007.5mb 65f 64f
5:08 2 7 mph 1007.6mb 65f 65f
4:08 4 11 mph 1007.6mb 65f 64f
3:08 4 9 mph 1007.9mb 66f 65f
2:08 7 11 mph 1008mb 66f 64f
1:08 2 7 mph 1008.6mb 66f 67f
12:08 2 7 mph 1009.1mb 66f 68f
Sex 02/24 11:08 4 9 mph 1009.3mb 66f 68f
10:08 7 11 mph 1009mb 67f 68f
9:08 7 11 mph 1009.4mb 67f 68f
8:08 9 11 mph 1009.9mb 67f 68f
7:08 9 13 mph 1010.4mb 68f 67f
6:08 7 11 mph 1010mb 68f 68f
5:08 7 11 mph 1009.9mb 67f 69f
4:08 11 16 mph 1009.8mb 67f 68f
3:08 11 18 mph 1009.8mb 67f 68f
2:08 11 16 mph 1010.6mb 67f 68f
1:08 11 16 mph 1010.8mb 67f 67f
12:08 11 18 mph 1011.5mb 66f 67f
11:08 13 20 mph 1012.2mb 66f 66f
10:08 16 25 mph 1012.1mb 66f 66f
9:08 13 18 mph 1012.3mb 66f 66f
8:08 11 18 mph 1011.7mb 66f 67f
7:08 11 16 mph 1011.1mb 66f 66f
6:08 9 13 mph 1011.3mb 66f 67f
5:08 9 16 mph 1010.8mb 66f 66f
4:08 9 16 mph 1011.3mb 66f 66f
3:08 4 11 mph 1011.2mb 66f 67f
2:08 4 7 mph 1010.8mb 66f 67f
1:08 11 18 mph 1011.2mb 66f 67f
12:08 9 16 mph 1011.3mb 66f 68f
Qui 02/23 11:08 11 16 mph 1012mb 66f 69f
10:08 7 9 mph 1011.8mb 66f 68f
9:08 7 11 mph 1011.8mb 67f 68f
8:08 7 11 mph 1011.3mb 67f 68f
7:08 9 13 mph 1010.9mb 67f 69f
6:08 4 9 mph 1011.4mb 67f 68f
5:08 9 13 mph 1011.1mb 67f 69f
4:08 9 13 mph 1010.6mb 67f 69f
3:08 9 16 mph 1010.8mb 67f 67f
2:08 13 20 mph 1012.2mb 66f 68f
1:08 13 18 mph 1012.7mb 66f 68f
12:08 16 22 mph 1013.4mb 66f 68f
11:08 11 18 mph 1013.2mb 66f 69f
10:08 9 13 mph 1013.1mb 65f 68f
9:08 13 18 mph 1013.2mb 65f 67f
8:08 13 20 mph 1012.7mb 65f 67f
7:08 9 13 mph 1012mb 65f 66f
6:08 16 25 mph 1011.7mb 65f 66f
5:08 11 20 mph 1011.3mb 65f 67f